2023-001AA (55033 NORAD) Tracking and Keplerian Element Data

This shows tracking and keplerian element data for the satellite.

Feedback or suggestion? Click here.




ElementValue
Catalog55033
Name2023-001AA
Epoch Orbit169
Epoch Day13.78592031
Epoch Year2023
RAAN75.7263
Inclination97.4995
Eccentricity0.0012198
Argument of Perigee178.0545
Mean Anonmoly182.0735
Mean Motion15.12520279
Decay Rate8.705E-05
L11 55033U 23001AA 23013.78592031 .00008705 00000+0 50236-3 0 9994
L22 55033 97.4995 75.7263 0012198 178.0545 182.0735 15.12520279 1698



Live tracking and technical data element details for 2023-001AA (NORAD 55033). 2023-001AA can be tracked NOW for your location showing map with azimuth and elevation plus other details from your city location.







IsCatalogInMostPopularTable: catalog: 55033, numindb: 3
Update: records affected: 1



GetName: 55033 2023-001AA

Hit Count: updated at: Tue, 07 Feb 2023 14:19:35 GMT